Weather in Lasta

Russia / Komi Republic     64°55′36″N   53°48′31″E
temp.,
°C
wind,
m/s
gust,
m/s
humid.,
%
clouds,
%
prec.,
mm/h
press.,
hPa
HPBL,
m
4 december, sat
sat400:00−20n39874 0.0 1011302
03:00−22n38915 0.0 1014204
06:00−24n25975 0.0 101674
09:00−28n1110031 0.0 101813
12:00−25nne27100100 0.0 1018112
15:00−21ne3139697 0.0 1017355
18:00−20ne51880100 0.0 1015575
21:00−19ne41582100 0.0 1015516
5 december, sun
sun500:00−20nne31088100 0.0 1016327
03:00−22n2594100 0.0 1017104
06:00−20nnw2490100 0.0 1016111
09:00−16w1296100 0.6 101592
12:00−14sw1197100 0.3 101540
15:00−14ssw1197100 0.5 101636
18:00−11ssw009695 0.6 101740
21:00−11nw149881 0.8 101873
6 december, mon
mon600:00−13wnw279621 0.0 1020115
03:00−13wnw3109493 0.0 1020184
06:00−12w3129067 0.0 1020301
09:00−13w41191100 0.0 1020348
12:00−13w4119119 0.0 1020377
15:00−13w4129178 0.0 1021420
18:00−11w4129098 0.0 1021512
21:00−10w41290100 0.1 1021596
7 december, tue
tue700:00−10w4129299 0.1 1022538
03:00−10wnw4119192 0.3 1024523
06:00−11w3109396 0.1 1025437
09:00−15w279631 0.1 1027159
12:00−15wsw259750 0.0 102893
15:00−18wsw2310060 0.0 103040
18:00−18sw229979 0.0 103128
21:00−18wsw249939 0.0 103254
8 december, wed
wed800:00−20ssw1110047 0.0 103310
03:00−22s2110051 0.0 103316
06:00−22sse2210083 0.0 103235
09:00−20sse2510083 0.0 103177
12:00−19se269986 0.0 102997
15:00−20se2210020 0.0 102734
18:00−20e1399100 0.0 102536
21:00−15e259499 0.0 1024114